Time,TemperatureF,DewpointF,PressureIn,WindDirection,WindDirectionDegrees,WindSpeedMPH,WindSpeedGustMPH,Humidity,HourlyPrecipIn,Conditions,Clouds,dailyrainin,SoftwareType,DateUTC
2013-03-01 00:00:00,37.1,27.2,30.33,SE,145,4.0,19.0,67,0.00,,,0.00,Wunderground v.1.15,2013-03-01 07:00:00,
2013-03-01 00:05:00,37.2,26.9,30.33,WNW,302,5.0,19.0,66,0.00,,,0.00,Wunderground v.1.15,2013-03-01 07:05:00,
2013-03-01 00:10:00,37.1,27.2,30.33,NNE,26,4.0,4.0,67,0.00,,,0.00,Wunderground v.1.15,2013-03-01 07:10:00,
2013-03-01 00:15:00,37.0,27.1,30.33,NE,49,2.0,19.0,67,0.00,,,0.00,Wunderground v.1.15,2013-03-01 07:15:00,
2013-03-01 00:20:00,37.0,27.1,30.33,NE,51,2.0,2.0,67,0.00,,,0.00,Wunderground v.1.15,2013-03-01 07:20:00,
2013-03-01 00:25:00,37.0,27.1,30.33,West,277,2.0,19.0,67,0.00,,,0.00,Wunderground v.1.15,2013-03-01 07:25:00,
2013-03-01 00:35:00,36.7,27.1,30.33,ESE,117,1.0,19.0,68,0.00,,,0.00,Wunderground v.1.15,2013-03-01 07:35:00,
2013-03-01 00:40:00,36.6,27.0,30.34,SSE,156,0.0,19.0,68,0.00,,,0.00,Wunderground v.1.15,2013-03-01 07:40:00,
2013-03-01 00:45:00,36.5,27.3,30.34,SE,142,0.0,19.0,69,0.00,,,0.00,Wunderground v.1.15,2013-03-01 07:45:00,
2013-03-01 00:50:00,36.3,27.1,30.34,WNW,291,0.0,19.0,69,0.00,,,0.00,Wunderground v.1.15,2013-03-01 07:50:00,
2013-03-01 00:55:00,36.3,27.1,30.33,East,80,1.0,19.0,69,0.00,,,0.00,Wunderground v.1.15,2013-03-01 07:55:00,
2013-03-01 01:00:00,36.3,27.1,30.34,NW,308,1.0,19.0,69,0.00,,,0.00,Wunderground v.1.15,2013-03-01 08:00:00,
2013-03-01 01:05:00,36.6,27.4,30.33,SSW,198,1.0,19.0,69,0.00,,,0.00,Wunderground v.1.15,2013-03-01 08:05:00,
2013-03-01 01:15:00,37.3,27.7,30.34,NW,314,2.0,2.0,68,0.00,,,0.00,Wunderground v.1.15,2013-03-01 08:15:00,
2013-03-01 01:20:00,37.2,27.6,30.34,SE,129,1.0,1.0,68,0.00,,,0.00,Wunderground v.1.15,2013-03-01 08:20:00,
2013-03-01 01:25:00,36.9,27.7,30.34,SW,224,0.0,19.0,69,0.00,,,0.00,Wunderground v.1.15,2013-03-01 08:25:00,
2013-03-01 01:30:00,36.8,27.6,30.34,South,191,0.0,19.0,69,0.00,,,0.00,Wunderground v.1.15,2013-03-01 08:30:00,
2013-03-01 01:35:00,37.3,27.3,30.34,SSW,200,1.0,19.0,67,0.00,,,0.00,Wunderground v.1.15,2013-03-01 08:35:00,
2013-03-01 01:40:00,38.0,27.6,30.34,SSW,208,3.0,3.0,66,0.00,,,0.00,Wunderground v.1.15,2013-03-01 08:40:00,
2013-03-01 01:45:00,38.5,27.7,30.34,WSW,250,4.0,4.0,65,0.00,,,0.00,Wunderground v.1.15,2013-03-01 08:45:00,
2013-03-01 01:50:00,38.4,27.7,30.34,WNW,288,3.0,19.0,65,0.00,,,0.00,Wunderground v.1.15,2013-03-01 08:50:00,
2013-03-01 01:59:00,37.9,27.5,30.35,West,274,2.0,2.0,66,0.00,,,0.00,Wunderground v.1.15,2013-03-01 08:59:00,
2013-03-01 02:05:00,38.1,27.7,30.35,South,181,4.0,4.0,66,0.00,,,0.00,Wunderground v.1.15,2013-03-01 09:05:00,
2013-03-01 02:10:00,38.6,27.8,30.35,SSW,198,5.0,5.0,65,0.00,,,0.00,Wunderground v.1.15,2013-03-01 09:10:00,
2013-03-01 02:15:00,38.6,27.8,30.35,SSE,162,5.0,9.0,65,0.00,,,0.00,Wunderground v.1.15,2013-03-01 09:15:00,
2013-03-01 02:20:00,38.9,27.8,30.35,WNW,294,7.0,7.0,64,0.00,,,0.00,Wunderground v.1.15,2013-03-01 09:20:00,
2013-03-01 02:25:00,39.0,27.8,30.35,SSW,209,7.0,8.0,64,0.00,,,0.00,Wunderground v.1.15,2013-03-01 09:25:00,
2013-03-01 02:30:00,38.9,27.8,30.35,South,187,7.0,19.0,64,0.00,,,0.00,Wunderground v.1.15,2013-03-01 09:30:00,
2013-03-01 02:35:00,38.9,27.8,30.35,South,170,8.0,19.0,64,0.00,,,0.00,Wunderground v.1.15,2013-03-01 09:35:00,
2013-03-01 02:45:00,39.3,27.7,30.35,SSW,205,4.0,19.0,63,0.00,,,0.00,Wunderground v.1.15,2013-03-01 09:45:00,
2013-03-01 02:50:00,39.1,27.9,30.35,WSW,250,3.0,19.0,64,0.00,,,0.00,Wunderground v.1.15,2013-03-01 09:50:00,
2013-03-01 02:55:00,39.0,27.8,30.35,West,274,2.0,19.0,64,0.00,,,0.00,Wunderground v.1.15,2013-03-01 09:55:00,
2013-03-01 03:00:00,39.1,27.9,30.36,West,271,2.0,2.0,64,0.00,,,0.00,Wunderground v.1.15,2013-03-01 10:00:00,
2013-03-01 03:05:00,39.0,27.8,30.36,NE,44,1.0,19.0,64,0.00,,,0.00,Wunderground v.1.15,2013-03-01 10:05:00,
2013-03-01 03:10:00,38.9,27.8,30.35,NNW,336,0.0,19.0,64,0.00,,,0.00,Wunderground v.1.15,2013-03-01 10:10:00,
2013-03-01 03:15:00,38.7,27.9,30.35,NE,44,1.0,19.0,65,0.00,,,0.00,Wunderground v.1.15,2013-03-01 10:15:00,
2013-03-01 03:25:00,38.9,28.1,30.34,SE,127,3.0,5.0,65,0.00,,,0.00,Wunderground v.1.15,2013-03-01 10:25:00,
2013-03-01 03:30:00,38.5,28.1,30.34,SE,145,4.0,4.0,66,0.00,,,0.00,Wunderground v.1.15,2013-03-01 10:30:00,
2013-03-01 03:35:00,38.2,27.8,30.33,ESE,122,4.0,6.0,66,0.00,,,0.00,Wunderground v.1.15,2013-03-01 10:35:00,
2013-03-01 03:40:00,38.7,28.3,30.33,ENE,68,4.0,19.0,66,0.00,,,0.00,Wunderground v.1.15,2013-03-01 10:40:00,
2013-03-01 03:45:00,38.5,28.1,30.34,ESE,120,4.0,19.0,66,0.00,,,0.00,Wunderground v.1.15,2013-03-01 10:45:00,
2013-03-01 03:50:00,38.8,28.0,30.33,ESE,111,4.0,4.0,65,0.00,,,0.00,Wunderground v.1.15,2013-03-01 10:50:00,
2013-03-01 03:55:00,38.8,28.0,30.33,ESE,102,3.0,19.0,65,0.00,,,0.00,Wunderground v.1.15,2013-03-01 10:55:00,
2013-03-01 04:05:00,38.7,28.3,30.33,West,281,3.0,19.0,66,0.00,,,0.00,Wunderground v.1.15,2013-03-01 11:05:00,
2013-03-01 04:10:00,38.6,28.2,30.33,SSW,200,1.0,1.0,66,0.00,,,0.00,Wunderground v.1.15,2013-03-01 11:10:00,
2013-03-01 04:15:00,38.3,28.3,30.33,SW,236,0.0,19.0,67,0.00,,,0.00,Wunderground v.1.15,2013-03-01 11:15:00,
2013-03-01 04:20:00,38.0,28.4,30.32,East,98,1.0,19.0,68,0.00,,,0.00,Wunderground v.1.15,2013-03-01 11:20:00,
2013-03-01 04:25:00,38.2,28.2,30.32,SSE,153,2.0,19.0,67,0.00,,,0.00,Wunderground v.1.15,2013-03-01 11:25:00,
2013-03-01 04:30:00,38.4,28.4,30.32,ESE,111,4.0,19.0,67,0.00,,,0.00,Wunderground v.1.15,2013-03-01 11:30:00,
2013-03-01 04:35:00,38.6,28.6,30.32,South,179,5.0,19.0,67,0.00,,,0.00,Wunderground v.1.15,2013-03-01 11:35:00,
2013-03-01 04:45:00,39.0,28.6,30.32,East,82,4.0,19.0,66,0.00,,,0.00,Wunderground v.1.15,2013-03-01 11:45:00,
2013-03-01 04:50:00,39.5,28.7,30.32,SSE,153,5.0,5.0,65,0.00,,,0.00,Wunderground v.1.15,2013-03-01 11:50:00,
2013-03-01 04:55:00,39.1,28.7,30.32,SW,218,5.0,19.0,66,0.00,,,0.00,Wunderground v.1.15,2013-03-01 11:55:00,
2013-03-01 05:00:00,39.0,29.0,30.32,East,84,4.0,4.0,67,0.00,,,0.00,Wunderground v.1.15,2013-03-01 12:00:00,
2013-03-01 05:05:00,39.0,29.0,30.32,SE,132,4.0,19.0,67,0.00,,,0.00,Wunderground v.1.15,2013-03-01 12:05:00,
2013-03-01 05:10:00,38.9,28.9,30.32,SE,142,6.0,6.0,67,0.00,,,0.00,Wunderground v.1.15,2013-03-01 12:10:00,
2013-03-01 05:15:00,38.5,28.9,30.32,SSW,197,8.0,8.0,68,0.00,,,0.00,Wunderground v.1.15,2013-03-01 12:15:00,
2013-03-01 05:24:00,38.2,28.9,30.32,SE,129,7.0,19.0,69,0.00,,,0.00,Wunderground v.1.15,2013-03-01 12:24:00,
2013-03-01 05:30:00,38.4,29.1,30.32,SSE,157,6.0,6.0,69,0.00,,,0.00,Wunderground v.1.15,2013-03-01 12:30:00,
2013-03-01 05:35:00,38.7,29.0,30.32,SSE,150,4.0,19.0,68,0.00,,,0.00,Wunderground v.1.15,2013-03-01 12:35:00,
2013-03-01 05:40:00,38.9,29.2,30.32,SE,136,2.0,19.0,68,0.00,,,0.00,Wunderground v.1.15,2013-03-01 12:40:00,
2013-03-01 05:45:00,38.8,29.1,30.32,SSE,150,3.0,19.0,68,0.00,,,0.00,Wunderground v.1.15,2013-03-01 12:45:00,
2013-03-01 05:50:00,38.7,29.4,30.32,East,82,5.0,5.0,69,0.00,,,0.00,Wunderground v.1.15,2013-03-01 12:50:00,
2013-03-01 05:55:00,38.3,29.0,30.32,ESE,116,5.0,19.0,69,0.00,,,0.00,Wunderground v.1.15,2013-03-01 12:55:00,
2013-03-01 06:05:00,38.4,29.5,30.33,East,85,4.0,19.0,70,0.00,,,0.00,Wunderground v.1.15,2013-03-01 13:05:00,
2013-03-01 06:10:00,38.4,29.5,30.32,SE,124,4.0,19.0,70,0.00,,,0.00,Wunderground v.1.15,2013-03-01 13:10:00,
2013-03-01 06:20:00,38.7,29.4,30.32,ESE,103,3.0,3.0,69,0.00,,,0.00,Wunderground v.1.15,2013-03-01 13:20:00,
2013-03-01 06:25:00,39.0,29.3,30.33,SE,124,2.0,19.0,68,0.00,,,0.00,Wunderground v.1.15,2013-03-01 13:25:00,
2013-03-01 06:30:00,39.4,29.7,30.32,ENE,64,2.0,2.0,68,0.00,,,0.00,Wunderground v.1.15,2013-03-01 13:30:00,
2013-03-01 06:40:00,39.3,29.6,30.32,SE,137,0.0,19.0,68,0.00,,,0.00,Wunderground v.1.15,2013-03-01 13:40:00,
2013-03-01 06:45:00,38.8,29.5,30.32,ENE,62,1.0,19.0,69,0.00,,,0.00,Wunderground v.1.15,2013-03-01 13:45:00,
2013-03-01 06:50:00,38.5,29.6,30.31,ESE,108,1.0,1.0,70,0.00,,,0.00,Wunderground v.1.15,2013-03-01 13:50:00,
2013-03-01 06:55:00,39.0,29.7,30.30,East,98,1.0,2.0,69,0.00,,,0.00,Wunderground v.1.15,2013-03-01 13:55:00,
2013-03-01 07:05:00,39.4,29.3,30.29,SE,131,2.0,3.0,67,0.00,,,0.00,Wunderground v.1.15,2013-03-01 14:05:00,
2013-03-01 07:10:00,39.7,29.3,30.30,South,182,3.0,3.0,66,0.00,,,0.00,Wunderground v.1.15,2013-03-01 14:10:00,
2013-03-01 07:15:00,39.3,29.3,30.30,SE,138,2.0,19.0,67,0.00,,,0.00,Wunderground v.1.15,2013-03-01 14:15:00,
2013-03-01 07:20:00,39.0,29.0,30.30,SE,146,1.0,1.0,67,0.00,,,0.00,Wunderground v.1.15,2013-03-01 14:20:00,
2013-03-01 07:25:00,38.9,29.2,30.30,ESE,110,0.0,19.0,68,0.00,,,0.00,Wunderground v.1.15,2013-03-01 14:25:00,
2013-03-01 07:30:00,39.0,29.3,30.30,ESE,108,1.0,19.0,68,0.00,,,0.00,Wunderground v.1.15,2013-03-01 14:30:00,
2013-03-01 07:35:00,39.1,29.4,30.30,SE,130,1.0,19.0,68,0.00,,,0.00,Wunderground v.1.15,2013-03-01 14:35:00,
2013-03-01 07:40:00,39.3,29.3,30.30,ESE,123,2.0,2.0,67,0.00,,,0.00,Wunderground v.1.15,2013-03-01 14:40:00,
2013-03-01 07:45:00,39.3,29.3,30.30,ENE,68,1.0,19.0,67,0.00,,,0.00,Wunderground v.1.15,2013-03-01 14:45:00,
2013-03-01 07:50:00,39.1,29.4,30.31,South,180,2.0,19.0,68,0.00,,,0.00,Wunderground v.1.15,2013-03-01 14:50:00,
2013-03-01 08:00:00,39.1,29.4,30.31,SSE,158,4.0,19.0,68,0.00,,,0.00,Wunderground v.1.15,2013-03-01 15:00:00,
2013-03-01 08:05:00,38.8,29.5,30.30,ESE,116,6.0,19.0,69,0.00,,,0.00,Wunderground v.1.15,2013-03-01 15:05:00,
2013-03-01 08:10:00,38.6,29.7,30.31,ESE,113,8.0,8.0,70,0.00,,,0.00,Wunderground v.1.15,2013-03-01 15:10:00,
2013-03-01 08:15:00,38.8,29.5,30.31,SE,146,9.0,10.0,69,0.00,,,0.00,Wunderground v.1.15,2013-03-01 15:15:00,
2013-03-01 08:20:00,38.9,29.9,30.31,SE,135,9.0,9.0,70,0.00,,,0.00,Wunderground v.1.15,2013-03-01 15:20:00,
2013-03-01 08:25:00,39.1,30.1,30.31,South,176,9.0,11.0,70,0.00,,,0.00,Wunderground v.1.15,2013-03-01 15:25:00,
2013-03-01 08:30:00,39.0,29.7,30.30,SE,127,8.0,19.0,69,0.00,,,0.00,Wunderground v.1.15,2013-03-01 15:30:00,
2013-03-01 08:40:00,39.7,29.6,30.31,SE,128,2.0,2.0,67,0.00,,,0.00,Wunderground v.1.15,2013-03-01 15:40:00,
2013-03-01 08:45:00,40.1,29.6,30.31,WNW,298,1.0,19.0,66,0.00,,,0.00,Wunderground v.1.15,2013-03-01 15:45:00,
2013-03-01 08:55:00,39.0,30.0,30.32,SSE,165,7.0,7.0,70,0.00,,,0.00,Wunderground v.1.15,2013-03-01 15:55:00,
2013-03-01 09:00:00,39.4,30.1,30.32,ESE,117,8.0,8.0,69,0.00,,,0.00,Wunderground v.1.15,2013-03-01 16:00:00,
2013-03-01 09:05:00,39.6,29.9,30.31,SSE,163,7.0,19.0,68,0.00,,,0.00,Wunderground v.1.15,2013-03-01 16:05:00,
2013-03-01 09:15:00,40.0,30.6,30.31,South,169,10.0,19.0,69,0.00,,,0.00,Wunderground v.1.15,2013-03-01 16:15:00,
2013-03-01 09:20:00,40.7,31.0,30.31,South,181,10.0,19.0,68,0.00,,,0.00,Wunderground v.1.15,2013-03-01 16:20:00,
2013-03-01 09:30:00,40.7,30.6,30.31,South,180,10.0,10.0,67,0.00,,,0.00,Wunderground v.1.15,2013-03-01 16:30:00,
2013-03-01 09:35:00,40.9,30.0,30.31,East,97,7.0,19.0,65,0.00,,,0.00,Wunderground v.1.15,2013-03-01 16:35:00,
2013-03-01 09:40:00,41.5,29.8,30.31,SW,217,4.0,4.0,63,0.00,,,0.00,Wunderground v.1.15,2013-03-01 16:40:00,
2013-03-01 09:45:00,42.0,29.9,30.31,NW,325,2.0,19.0,62,0.00,,,0.00,Wunderground v.1.15,2013-03-01 16:45:00,
2013-03-01 09:50:00,42.7,29.8,30.31,WNW,288,2.0,2.0,60,0.00,,,0.00,Wunderground v.1.15,2013-03-01 16:50:00,
2013-03-01 09:59:00,44.7,29.1,30.30,West,259,4.0,19.0,54,0.00,,,0.00,Wunderground v.1.15,2013-03-01 16:59:00,
2013-03-01 10:04:00,45.4,28.8,30.30,West,267,7.0,19.0,52,0.00,,,0.00,Wunderground v.1.15,2013-03-01 17:04:00,
2013-03-01 10:10:00,45.2,30.0,30.30,West,274,5.0,5.0,55,0.00,,,0.00,Wunderground v.1.15,2013-03-01 17:10:00,
2013-03-01 10:15:00,45.2,29.5,30.30,WSW,255,3.0,8.0,54,0.00,,,0.00,Wunderground v.1.15,2013-03-01 17:15:00,
2013-03-01 10:20:00,45.6,28.5,30.30,West,276,5.0,5.0,51,0.00,,,0.00,Wunderground v.1.15,2013-03-01 17:20:00,
2013-03-01 10:25:00,45.7,28.1,30.30,WNW,302,5.0,13.0,50,0.00,,,0.00,Wunderground v.1.15,2013-03-01 17:25:00,
2013-03-01 10:30:00,46.0,28.9,30.30,SE,131,5.0,5.0,51,0.00,,,0.00,Wunderground v.1.15,2013-03-01 17:30:00,
2013-03-01 10:40:00,46.1,28.0,30.30,West,269,5.0,19.0,49,0.00,,,0.00,Wunderground v.1.15,2013-03-01 17:40:00,
2013-03-01 10:50:00,45.8,28.2,30.29,West,262,8.0,8.0,50,0.00,,,0.00,Wunderground v.1.15,2013-03-01 17:50:00,
2013-03-01 10:55:00,45.6,28.5,30.30,SW,224,7.0,19.0,51,0.00,,,0.00,Wunderground v.1.15,2013-03-01 17:55:00,
2013-03-01 11:00:00,45.8,29.2,30.30,WNW,289,5.0,5.0,52,0.00,,,0.00,Wunderground v.1.15,2013-03-01 18:00:00,
2013-03-01 11:05:00,45.5,29.3,30.30,SE,131,4.0,10.0,53,0.00,,,0.00,Wunderground v.1.15,2013-03-01 18:05:00,
2013-03-01 11:15:00,44.0,30.6,30.30,SSE,158,7.0,8.0,59,0.00,,,0.00,Wunderground v.1.15,2013-03-01 18:15:00,
2013-03-01 11:20:00,44.1,30.7,30.30,East,100,8.0,19.0,59,0.00,,,0.00,Wunderground v.1.15,2013-03-01 18:20:00,
2013-03-01 11:25:00,44.5,30.6,30.30,SSE,162,6.0,19.0,58,0.00,,,0.00,Wunderground v.1.15,2013-03-01 18:25:00,
2013-03-01 11:35:00,44.0,31.0,30.30,SE,142,6.0,6.0,60,0.00,,,0.00,Wunderground v.1.15,2013-03-01 18:35:00,
2013-03-01 11:40:00,43.9,30.9,30.31,NW,304,7.0,7.0,60,0.00,,,0.00,Wunderground v.1.15,2013-03-01 18:40:00,
2013-03-01 11:50:00,44.0,30.6,30.31,SW,228,8.0,8.0,59,0.00,,,0.00,Wunderground v.1.15,2013-03-01 18:50:00,
2013-03-01 11:55:00,44.3,30.4,30.30,SSW,200,7.0,19.0,58,0.00,,,0.00,Wunderground v.1.15,2013-03-01 18:55:00,
2013-03-01 12:00:00,45.0,29.3,30.30,NNW,338,5.0,5.0,54,0.00,,,0.00,Wunderground v.1.15,2013-03-01 19:00:00,
2013-03-01 12:05:00,45.0,31.1,30.30,SSW,205,5.0,9.0,58,0.00,,,0.00,Wunderground v.1.15,2013-03-01 19:05:00,
2013-03-01 12:15:00,45.3,31.0,30.30,SSW,199,7.0,19.0,57,0.00,,,0.00,Wunderground v.1.15,2013-03-01 19:15:00,
2013-03-01 12:25:00,45.4,30.2,30.30,South,180,5.0,19.0,55,0.00,,,0.00,Wunderground v.1.15,2013-03-01 19:25:00,
2013-03-01 12:30:00,45.2,30.9,30.30,SW,215,5.0,19.0,57,0.00,,,0.00,Wunderground v.1.15,2013-03-01 19:30:00,
2013-03-01 12:35:00,45.3,31.0,30.30,South,191,7.0,19.0,57,0.00,,,0.00,Wunderground v.1.15,2013-03-01 19:35:00,
2013-03-01 12:40:00,45.6,30.8,30.30,SE,139,6.0,19.0,56,0.00,,,0.00,Wunderground v.1.15,2013-03-01 19:40:00,
2013-03-01 12:45:00,45.6,30.3,30.30,SSE,166,7.0,19.0,55,0.00,,,0.00,Wunderground v.1.15,2013-03-01 19:45:00,
2013-03-01 12:55:00,45.7,30.0,30.31,SW,225,6.0,19.0,54,0.00,,,0.00,Wunderground v.1.15,2013-03-01 19:55:00,
2013-03-01 13:00:00,46.0,29.8,30.31,SSE,153,4.0,19.0,53,0.00,,,0.00,Wunderground v.1.15,2013-03-01 20:00:00,
2013-03-01 13:10:00,46.3,29.6,30.30,SSE,156,6.0,19.0,52,0.00,,,0.00,Wunderground v.1.15,2013-03-01 20:10:00,
2013-03-01 13:15:00,45.6,30.8,30.30,West,262,7.0,19.0,56,0.00,,,0.00,Wunderground v.1.15,2013-03-01 20:15:00,
2013-03-01 13:20:00,45.7,30.4,30.30,ESE,117,4.0,4.0,55,0.00,,,0.00,Wunderground v.1.15,2013-03-01 20:20:00,
2013-03-01 13:30:00,46.6,29.4,30.29,West,267,8.0,8.0,51,0.00,,,0.00,Wunderground v.1.15,2013-03-01 20:30:00,
2013-03-01 13:35:00,46.8,29.6,30.29,WSW,251,8.0,19.0,51,0.00,,,0.00,Wunderground v.1.15,2013-03-01 20:35:00,
2013-03-01 13:40:00,46.9,29.2,30.28,West,281,7.0,7.0,50,0.00,,,0.00,Wunderground v.1.15,2013-03-01 20:40:00,
2013-03-01 13:45:00,46.8,29.6,30.28,West,278,8.0,8.0,51,0.00,,,0.00,Wunderground v.1.15,2013-03-01 20:45:00,
2013-03-01 13:55:00,46.7,30.0,30.28,NW,305,6.0,19.0,52,0.00,,,0.00,Wunderground v.1.15,2013-03-01 20:55:00,
2013-03-01 14:05:00,46.7,30.0,30.28,WNW,291,6.0,11.0,52,0.00,,,0.00,Wunderground v.1.15,2013-03-01 21:05:00,
2013-03-01 14:10:00,46.5,30.3,30.28,NNW,327,8.0,8.0,53,0.00,,,0.00,Wunderground v.1.15,2013-03-01 21:10:00,
2013-03-01 14:15:00,46.2,30.5,30.28,West,281,7.0,19.0,54,0.00,,,0.00,Wunderground v.1.15,2013-03-01 21:15:00,
2013-03-01 14:20:00,46.1,30.4,30.27,WSW,238,7.0,19.0,54,0.00,,,0.00,Wunderground v.1.15,2013-03-01 21:20:00,
2013-03-01 14:25:00,46.1,30.4,30.27,WNW,294,6.0,19.0,54,0.00,,,0.00,Wunderground v.1.15,2013-03-01 21:25:00,
2013-03-01 14:34:00,46.7,30.0,30.27,SW,219,5.0,19.0,52,0.00,,,0.00,Wunderground v.1.15,2013-03-01 21:34:00,
2013-03-01 14:40:00,46.7,30.9,30.27,SE,134,5.0,5.0,54,0.00,,,0.00,Wunderground v.1.15,2013-03-01 21:40:00,
2013-03-01 14:45:00,46.7,30.9,30.27,SSE,149,5.0,7.0,54,0.00,,,0.00,Wunderground v.1.15,2013-03-01 21:45:00,
2013-03-01 14:50:00,46.8,30.6,30.27,South,188,6.0,6.0,53,0.00,,,0.00,Wunderground v.1.15,2013-03-01 21:50:00,
2013-03-01 14:55:00,47.0,30.7,30.27,SSW,198,6.0,19.0,53,0.00,,,0.00,Wunderground v.1.15,2013-03-01 21:55:00,
2013-03-01 15:00:00,47.5,30.7,30.26,WNW,288,3.0,3.0,52,0.00,,,0.00,Wunderground v.1.15,2013-03-01 22:00:00,
2013-03-01 15:05:00,47.8,30.5,30.27,NW,309,2.0,5.0,51,0.00,,,0.00,Wunderground v.1.15,2013-03-01 22:05:00,
2013-03-01 15:15:00,48.4,30.1,30.27,West,281,5.0,19.0,49,0.00,,,0.00,Wunderground v.1.15,2013-03-01 22:15:00,
2013-03-01 15:20:00,49.0,30.1,30.27,WNW,290,4.0,19.0,48,0.00,,,0.00,Wunderground v.1.15,2013-03-01 22:20:00,
2013-03-01 15:25:00,48.9,29.5,30.27,SSW,205,6.0,19.0,47,0.00,,,0.00,Wunderground v.1.15,2013-03-01 22:25:00,
2013-03-01 15:30:00,48.9,29.0,30.27,NNW,338,8.0,8.0,46,0.00,,,0.00,Wunderground v.1.15,2013-03-01 22:30:00,
2013-03-01 15:35:00,48.9,29.0,30.27,WSW,239,8.0,12.0,46,0.00,,,0.00,Wunderground v.1.15,2013-03-01 22:35:00,
2013-03-01 15:40:00,48.9,29.0,30.27,WNW,297,8.0,8.0,46,0.00,,,0.00,Wunderground v.1.15,2013-03-01 22:40:00,
2013-03-01 15:50:00,48.7,29.4,30.27,NW,306,7.0,19.0,47,0.00,,,0.00,Wunderground v.1.15,2013-03-01 22:50:00,
2013-03-01 16:00:00,48.7,28.8,30.27,WSW,245,8.0,19.0,46,0.00,,,0.00,Wunderground v.1.15,2013-03-01 23:00:00,
2013-03-01 16:05:00,48.9,29.5,30.27,West,278,8.0,19.0,47,0.00,,,0.00,Wunderground v.1.15,2013-03-01 23:05:00,
2013-03-01 16:10:00,49.1,28.7,30.27,WSW,257,5.0,5.0,45,0.00,,,0.00,Wunderground v.1.15,2013-03-01 23:10:00,
2013-03-01 16:15:00,49.1,28.7,30.27,WNW,302,5.0,19.0,45,0.00,,,0.00,Wunderground v.1.15,2013-03-01 23:15:00,
2013-03-01 16:25:00,48.8,28.9,30.28,WNW,290,6.0,19.0,46,0.00,,,0.00,Wunderground v.1.15,2013-03-01 23:25:00,
2013-03-01 16:30:00,48.5,28.6,30.28,WNW,288,8.0,8.0,46,0.00,,,0.00,Wunderground v.1.15,2013-03-01 23:30:00,
2013-03-01 16:35:00,48.3,29.0,30.28,WSW,250,8.0,12.0,47,0.00,,,0.00,Wunderground v.1.15,2013-03-01 23:35:00,
2013-03-01 16:40:00,48.3,29.0,30.27,WSW,253,7.0,19.0,47,0.00,,,0.00,Wunderground v.1.15,2013-03-01 23:40:00,
2013-03-01 16:50:00,48.2,28.9,30.27,SSW,213,6.0,6.0,47,0.00,,,0.00,Wunderground v.1.15,2013-03-01 23:50:00,
2013-03-01 16:55:00,47.9,28.6,30.26,NW,312,5.0,8.0,47,0.00,,,0.00,Wunderground v.1.15,2013-03-01 23:55:00,
2013-03-01 17:00:00,47.8,29.0,30.27,SSW,204,5.0,5.0,48,0.00,,,0.00,Wunderground v.1.15,2013-03-02 00:00:00,
2013-03-01 17:05:00,47.8,28.5,30.27,West,281,4.0,19.0,47,0.00,,,0.00,Wunderground v.1.15,2013-03-02 00:05:00,
2013-03-01 17:10:00,47.9,28.1,30.27,WNW,296,4.0,19.0,46,0.00,,,0.00,Wunderground v.1.15,2013-03-02 00:10:00,
2013-03-01 17:15:00,47.7,28.4,30.27,ESE,106,4.0,19.0,47,0.00,,,0.00,Wunderground v.1.15,2013-03-02 00:15:00,
2013-03-01 17:25:00,47.3,28.1,30.28,South,187,6.0,19.0,47,0.00,,,0.00,Wunderground v.1.15,2013-03-02 00:25:00,
2013-03-01 17:30:00,47.1,27.9,30.28,WSW,241,7.0,19.0,47,0.00,,,0.00,Wunderground v.1.15,2013-03-02 00:30:00,
2013-03-01 17:35:00,46.8,28.1,30.28,ESE,104,7.0,19.0,48,0.00,,,0.00,Wunderground v.1.15,2013-03-02 00:35:00,
2013-03-01 17:40:00,46.6,27.9,30.28,WSW,253,7.0,7.0,48,0.00,,,0.00,Wunderground v.1.15,2013-03-02 00:40:00,
2013-03-01 17:45:00,46.5,28.3,30.28,East,92,3.0,19.0,49,0.00,,,0.00,Wunderground v.1.15,2013-03-02 00:45:00,
2013-03-01 17:50:00,46.0,28.4,30.27,SSE,148,2.0,19.0,50,0.00,,,0.00,Wunderground v.1.15,2013-03-02 00:50:00,
2013-03-01 17:55:00,45.7,28.6,30.27,SSE,162,3.0,19.0,51,0.00,,,0.00,Wunderground v.1.15,2013-03-02 00:55:00,
2013-03-01 18:04:00,45.0,28.9,30.27,SE,136,5.0,19.0,53,0.00,,,0.00,Wunderground v.1.15,2013-03-02 01:04:00,
2013-03-01 18:10:00,44.9,28.3,30.27,SW,224,4.0,19.0,52,0.00,,,0.00,Wunderground v.1.15,2013-03-02 01:10:00,
2013-03-01 18:15:00,44.9,27.8,30.27,SW,221,3.0,19.0,51,0.00,,,0.00,Wunderground v.1.15,2013-03-02 01:15:00,
2013-03-01 18:20:00,44.8,28.2,30.27,ESE,121,2.0,2.0,52,0.00,,,0.00,Wunderground v.1.15,2013-03-02 01:20:00,
2013-03-01 18:25:00,44.7,27.7,30.28,SW,215,2.0,19.0,51,0.00,,,0.00,Wunderground v.1.15,2013-03-02 01:25:00,
2013-03-01 18:30:00,44.8,27.8,30.28,WNW,297,2.0,19.0,51,0.00,,,0.00,Wunderground v.1.15,2013-03-02 01:30:00,
2013-03-01 18:40:00,44.8,28.2,30.28,SSE,155,5.0,5.0,52,0.00,,,0.00,Wunderground v.1.15,2013-03-02 01:40:00,
2013-03-01 18:50:00,44.4,28.3,30.28,SW,226,3.0,3.0,53,0.00,,,0.00,Wunderground v.1.15,2013-03-02 01:50:00,
2013-03-01 18:55:00,44.2,27.7,30.28,SSE,163,2.0,19.0,52,0.00,,,0.00,Wunderground v.1.15,2013-03-02 01:55:00,
2013-03-01 19:00:00,44.1,27.6,30.28,ESE,117,1.0,19.0,52,0.00,,,0.00,Wunderground v.1.15,2013-03-02 02:00:00,
2013-03-01 19:05:00,43.6,27.6,30.28,ESE,113,1.0,19.0,53,0.00,,,0.00,Wunderground v.1.15,2013-03-02 02:05:00,
2013-03-01 19:15:00,42.5,27.9,30.28,WNW,298,0.0,19.0,56,0.00,,,0.00,Wunderground v.1.15,2013-03-02 02:15:00,
2013-03-01 19:25:00,41.8,27.7,30.28,NNE,33,0.0,19.0,57,0.00,,,0.00,Wunderground v.1.15,2013-03-02 02:25:00,
2013-03-01 19:30:00,41.1,27.4,30.28,NNE,33,0.0,19.0,58,0.00,,,0.00,Wunderground v.1.15,2013-03-02 02:30:00,
2013-03-01 19:35:00,40.6,27.4,30.28,NNW,333,0.0,19.0,59,0.00,,,0.00,Wunderground v.1.15,2013-03-02 02:35:00,
2013-03-01 19:40:00,41.0,27.8,30.28,NE,35,0.0,19.0,59,0.00,,,0.00,Wunderground v.1.15,2013-03-02 02:40:00,
2013-03-01 19:45:00,41.1,28.3,30.28,NNW,348,0.0,19.0,60,0.00,,,0.00,Wunderground v.1.15,2013-03-02 02:45:00,
2013-03-01 19:50:00,40.3,27.5,30.28,ESE,120,1.0,19.0,60,0.00,,,0.00,Wunderground v.1.15,2013-03-02 02:50:00,
2013-03-01 19:55:00,39.5,27.5,30.28,SW,231,2.0,19.0,62,0.00,,,0.00,Wunderground v.1.15,2013-03-02 02:55:00,
2013-03-01 20:00:00,39.3,27.4,30.28,SE,141,1.0,1.0,62,0.00,,,0.00,Wunderground v.1.15,2013-03-02 03:00:00,
2013-03-01 20:05:00,39.3,27.4,30.28,ESE,122,0.0,19.0,62,0.00,,,0.00,Wunderground v.1.15,2013-03-02 03:05:00,
2013-03-01 20:15:00,38.5,27.7,30.28,NNE,27,1.0,19.0,65,0.00,,,0.00,Wunderground v.1.15,2013-03-02 03:15:00,
2013-03-01 20:20:00,37.9,27.2,30.28,South,190,1.0,1.0,65,0.00,,,0.00,Wunderground v.1.15,2013-03-02 03:20:00,
2013-03-01 20:25:00,37.2,27.2,30.28,SE,145,0.0,19.0,67,0.00,,,0.00,Wunderground v.1.15,2013-03-02 03:25:00,
2013-03-01 20:30:00,37.3,27.3,30.28,ESE,108,0.0,19.0,67,0.00,,,0.00,Wunderground v.1.15,2013-03-02 03:30:00,
2013-03-01 20:35:00,37.9,27.5,30.28,West,260,1.0,19.0,66,0.00,,,0.00,Wunderground v.1.15,2013-03-02 03:35:00,
2013-03-01 20:40:00,37.7,27.4,30.28,SSW,204,1.0,19.0,66,0.00,,,0.00,Wunderground v.1.15,2013-03-02 03:40:00,
2013-03-01 20:45:00,37.3,27.3,30.28,South,169,1.0,19.0,67,0.00,,,0.00,Wunderground v.1.15,2013-03-02 03:45:00,
2013-03-01 20:54:00,37.6,27.6,30.28,SW,235,1.0,2.0,67,0.00,,,0.00,Wunderground v.1.15,2013-03-02 03:54:00,
2013-03-01 21:00:00,38.2,27.8,30.28,WNW,287,1.0,1.0,66,0.00,,,0.00,Wunderground v.1.15,2013-03-02 04:00:00,
2013-03-01 21:05:00,39.1,27.9,30.28,SW,214,1.0,19.0,64,0.00,,,0.00,Wunderground v.1.15,2013-03-02 04:05:00,
2013-03-01 21:10:00,38.8,27.7,30.28,NW,304,1.0,19.0,64,0.00,,,0.00,Wunderground v.1.15,2013-03-02 04:10:00,
2013-03-01 21:15:00,38.5,27.4,30.28,SW,219,0.0,19.0,64,0.00,,,0.00,Wunderground v.1.15,2013-03-02 04:15:00,
2013-03-01 21:20:00,38.3,27.6,30.28,SE,143,1.0,19.0,65,0.00,,,0.00,Wunderground v.1.15,2013-03-02 04:20:00,
2013-03-01 21:30:00,37.6,27.3,30.28,WNW,300,1.0,1.0,66,0.00,,,0.00,Wunderground v.1.15,2013-03-02 04:30:00,
2013-03-01 21:40:00,37.3,27.0,30.28,SW,215,1.0,1.0,66,0.00,,,0.00,Wunderground v.1.15,2013-03-02 04:40:00,
2013-03-01 21:45:00,37.2,27.2,30.28,SE,127,0.0,19.0,67,0.00,,,0.00,Wunderground v.1.15,2013-03-02 04:45:00,
2013-03-01 21:50:00,37.1,27.2,30.28,SSE,160,0.0,19.0,67,0.00,,,0.00,Wunderground v.1.15,2013-03-02 04:50:00,
2013-03-01 21:55:00,36.7,26.8,30.28,SE,128,0.0,19.0,67,0.00,,,0.00,Wunderground v.1.15,2013-03-02 04:55:00,
2013-03-01 22:04:00,36.3,26.7,30.28,SE,139,0.0,19.0,68,0.00,,,0.00,Wunderground v.1.15,2013-03-02 05:04:00,
2013-03-01 22:10:00,36.2,26.6,30.28,ESE,122,0.0,19.0,68,0.00,,,0.00,Wunderground v.1.15,2013-03-02 05:10:00,
2013-03-01 22:15:00,36.5,26.9,30.28,ESE,119,0.0,19.0,68,0.00,,,0.00,Wunderground v.1.15,2013-03-02 05:15:00,
2013-03-01 22:20:00,36.5,26.9,30.28,SE,146,0.0,19.0,68,0.00,,,0.00,Wunderground v.1.15,2013-03-02 05:20:00,
2013-03-01 22:25:00,36.8,26.9,30.27,SSE,153,1.0,19.0,67,0.00,,,0.00,Wunderground v.1.15,2013-03-02 05:25:00,
2013-03-01 22:30:00,36.7,27.1,30.27,NE,53,1.0,1.0,68,0.00,,,0.00,Wunderground v.1.15,2013-03-02 05:30:00,
2013-03-01 22:35:00,37.1,27.5,30.27,ESE,122,1.0,2.0,68,0.00,,,0.00,Wunderground v.1.15,2013-03-02 05:35:00,
2013-03-01 22:45:00,36.5,27.3,30.27,East,89,1.0,19.0,69,0.00,,,0.00,Wunderground v.1.15,2013-03-02 05:45:00,
2013-03-01 22:50:00,36.5,27.3,30.26,East,86,1.0,19.0,69,0.00,,,0.00,Wunderground v.1.15,2013-03-02 05:50:00,
2013-03-01 23:00:00,38.0,28.0,30.26,ENE,73,3.0,19.0,67,0.00,,,0.00,Wunderground v.1.15,2013-03-02 06:00:00,
2013-03-01 23:05:00,39.2,28.0,30.26,ENE,64,4.0,19.0,64,0.00,,,0.00,Wunderground v.1.15,2013-03-02 06:05:00,
2013-03-01 23:10:00,39.3,27.7,30.26,NNW,341,2.0,19.0,63,0.00,,,0.00,Wunderground v.1.15,2013-03-02 06:10:00,
2013-03-01 23:20:00,39.0,27.5,30.26,WSW,242,1.0,1.0,63,0.00,,,0.00,Wunderground v.1.15,2013-03-02 06:20:00,
2013-03-01 23:25:00,37.9,27.5,30.26,NNW,330,1.0,3.0,66,0.00,,,0.00,Wunderground v.1.15,2013-03-02 06:25:00,
2013-03-01 23:30:00,37.7,27.4,30.26,NNE,26,2.0,2.0,66,0.00,,,0.00,Wunderground v.1.15,2013-03-02 06:30:00,
2013-03-01 23:35:00,37.5,27.2,30.26,SE,127,2.0,19.0,66,0.00,,,0.00,Wunderground v.1.15,2013-03-02 06:35:00,
2013-03-01 23:44:00,37.3,27.3,30.26,NE,40,2.0,19.0,67,0.00,,,0.00,Wunderground v.1.15,2013-03-02 06:44:00,
2013-03-01 23:55:00,37.4,27.4,30.26,SW,231,2.0,19.0,67,0.00,,,0.00,Wunderground v.1.15,2013-03-02 06:55:00,